Location: Trois-Rivi�res
(46.3500°N, 72.5500°W)
Time: 05:16:12
(UTC-04:00)

ISS - Pass Details

Date: 07 October 2017
Orbit: 401 x 408 km, 51.6° (Epoch: 19 October)

Event Time Altitude Azimuth Distance (km) Brightness Sun altitude
Rises 20:41:29 0° 297° (WNW) 2,329 1.4 -25.3°
Reaches altitude 10° 20:43:35 10° 299° (WNW) 1,469 0.0 -25.6°
Enters shadow 20:45:11 26° 305° (NW) 838 -1.6 -25.9°
